Time,TemperatureF,DewpointF,PressureIn,WindDirection,WindDirectionDegrees,WindSpeedMPH,WindSpeedGustMPH,Humidity,HourlyPrecipIn,Conditions,Clouds,dailyrainin,SoftwareType,DateUTC
2013-09-20 00:14:00,68.0,61.0,29.07,WSW,247,0.0,0.0,79,0.00,,,0.00,,2013-09-20 04:14:00,
2013-09-20 00:24:00,68.0,61.0,29.07,WSW,247,0.0,1.0,79,0.00,,,0.00,,2013-09-20 04:24:00,
2013-09-20 00:44:00,68.0,61.0,29.07,SSE,157,0.0,0.0,79,0.00,,,0.00,,2013-09-20 04:44:00,
2013-09-20 00:53:00,68.0,61.0,29.07,WNW,292,0.0,1.0,79,0.00,,,0.00,,2013-09-20 04:53:00,
2013-09-20 01:13:00,68.0,61.0,29.07,SSE,157,0.0,0.0,79,0.00,,,0.00,,2013-09-20 05:13:00,
2013-09-20 01:23:00,68.0,61.0,29.07,SSE,157,0.0,0.0,79,0.00,,,0.00,,2013-09-20 05:23:00,
2013-09-20 01:53:00,68.0,61.0,29.04,SSE,157,0.0,0.0,79,0.00,,,0.00,,2013-09-20 05:53:00,
2013-09-20 02:12:00,68.0,61.0,29.04,SSE,157,0.0,0.0,79,0.00,,,0.00,,2013-09-20 06:12:00,
2013-09-20 02:22:00,68.0,61.0,29.07,SSE,157,0.0,0.0,79,0.00,,,0.00,,2013-09-20 06:22:00,
2013-09-20 02:52:00,66.0,63.0,29.07,SSE,157,0.0,0.0,89,0.00,,,0.00,,2013-09-20 06:52:00,
2013-09-20 03:12:00,66.0,63.0,29.07,ESE,112,0.0,0.0,89,0.00,,,0.00,,2013-09-20 07:12:00,
2013-09-20 03:23:00,66.0,63.0,29.07,ESE,112,0.0,0.0,90,0.00,,,0.00,,2013-09-20 07:23:00,
2013-09-20 03:42:00,66.0,63.0,29.07,ESE,112,0.0,0.0,90,0.00,,,0.00,,2013-09-20 07:42:00,
2013-09-20 03:53:00,66.0,63.0,29.04,ESE,112,0.0,0.0,90,0.00,,,0.00,,2013-09-20 07:53:00,
2013-09-20 04:11:00,67.0,64.0,29.04,ESE,112,0.0,0.0,90,0.00,,,0.00,,2013-09-20 08:11:00,
2013-09-20 04:22:00,67.0,64.0,29.07,West,270,0.0,2.0,90,0.00,,,0.00,,2013-09-20 08:22:00,
2013-09-20 04:52:00,67.0,64.0,29.04,SW,225,1.0,2.0,90,0.00,,,0.00,,2013-09-20 08:52:00,
2013-09-20 05:22:00,67.0,64.0,29.04,West,270,0.0,1.0,90,0.00,,,0.00,,2013-09-20 09:22:00,
2013-09-20 05:43:00,67.0,64.0,29.04,SSE,157,1.0,3.0,89,0.00,,,0.00,,2013-09-20 09:43:00,
2013-09-20 05:53:00,67.0,64.0,29.04,SSW,202,0.0,3.0,89,0.00,,,0.00,,2013-09-20 09:53:00,
2013-09-20 06:13:00,67.0,64.0,29.04,West,270,0.0,2.0,89,0.00,,,0.00,,2013-09-20 10:13:00,
2013-09-20 06:23:00,67.0,64.0,29.04,SSE,157,2.0,3.0,89,0.00,,,0.00,,2013-09-20 10:23:00,
2013-09-20 06:53:00,67.0,64.0,29.01,SSE,157,0.0,2.0,89,0.00,,,0.00,,2013-09-20 10:53:00,
2013-09-20 07:12:00,67.0,64.0,29.00,NE,45,0.0,1.0,89,0.00,,,0.00,,2013-09-20 11:12:00,
2013-09-20 07:23:00,68.0,65.0,29.04,NE,45,0.0,1.0,90,0.00,,,0.00,,2013-09-20 11:23:00,
2013-09-20 07:52:00,68.0,65.0,29.04,SE,135,1.0,3.0,90,0.00,,,0.00,,2013-09-20 11:52:00,
2013-09-20 08:12:00,68.0,65.0,29.03,SE,135,0.0,2.0,90,0.00,,,0.00,,2013-09-20 12:12:00,
2013-09-20 08:22:00,68.0,65.0,29.03,SE,135,0.0,2.0,90,0.00,,,0.00,,2013-09-20 12:22:00,
2013-09-20 08:43:00,68.0,65.0,29.04,SSE,157,0.0,3.0,90,0.00,,,0.00,,2013-09-20 12:43:00,
2013-09-20 08:52:00,68.0,65.0,29.04,SSE,157,0.0,3.0,90,0.00,,,0.00,,2013-09-20 12:52:00,
2013-09-20 09:12:00,68.0,65.0,29.04,SSE,157,1.0,2.0,90,0.00,,,0.00,,2013-09-20 13:12:00,
2013-09-20 09:22:00,69.0,66.0,29.04,SSE,157,0.0,2.0,90,0.00,,,0.00,,2013-09-20 13:22:00,
2013-09-20 09:42:00,69.0,66.0,29.04,WSW,247,0.0,3.0,89,0.00,,,0.00,,2013-09-20 13:42:00,
2013-09-20 09:52:00,69.0,66.0,29.04,ENE,67,0.0,2.0,89,0.00,,,0.00,,2013-09-20 13:52:00,
2013-09-20 10:21:00,70.0,66.0,29.01,WSW,247,1.0,3.0,86,0.00,,,0.00,,2013-09-20 14:21:00,
2013-09-20 10:42:00,71.0,65.0,29.01,SSE,157,2.0,3.0,82,0.00,,,0.00,,2013-09-20 14:42:00,
2013-09-20 10:52:00,72.0,66.0,29.01,SSE,157,1.0,2.0,81,0.00,,,0.00,,2013-09-20 14:52:00,
2013-09-20 11:12:00,73.0,65.0,29.01,SSW,202,2.0,3.0,77,0.00,,,0.00,,2013-09-20 15:12:00,
2013-09-20 11:22:00,73.0,64.0,29.01,SSW,208,2.0,3.0,74,0.00,,,0.00,,2013-09-20 15:22:00,
2013-09-20 11:44:00,74.0,64.0,29.04,West,270,3.0,3.0,72,0.00,,,0.00,,2013-09-20 15:44:00,
2013-09-20 11:54:00,76.0,62.0,29.01,WSW,241,3.0,5.0,63,0.00,,,0.00,,2013-09-20 15:54:00,
2013-09-20 12:23:00,80.0,60.0,29.01,SSE,157,2.0,3.0,51,0.00,,,0.00,,2013-09-20 16:23:00,
2013-09-20 21:12:00,77.0,65.0,28.89,South,188,2.0,4.0,67,0.00,,,0.00,,2013-09-21 01:12:00,
2013-09-20 21:22:00,76.0,65.0,28.89,South,180,2.0,5.0,68,0.00,,,0.00,,2013-09-21 01:22:00,
2013-09-20 21:52:00,75.0,65.0,28.89,SSW,202,2.0,2.0,70,0.00,,,0.00,,2013-09-21 01:52:00,
2013-09-20 22:12:00,75.0,65.0,28.89,SSW,202,2.0,2.0,71,0.00,,,0.00,,2013-09-21 02:12:00,
2013-09-20 22:22:00,75.0,65.0,28.89,SSW,202,2.0,2.0,72,0.00,,,0.00,,2013-09-21 02:22:00,
2013-09-20 22:42:00,75.0,65.0,28.89,SSW,202,2.0,2.0,72,0.00,,,0.00,,2013-09-21 02:42:00,
2013-09-20 22:52:00,74.0,65.0,28.86,SSW,202,2.0,2.0,73,0.00,,,0.00,,2013-09-21 02:52:00,
2013-09-20 23:22:00,74.0,65.0,28.86,SSW,202,2.0,2.0,74,0.00,,,0.00,,2013-09-21 03:22:00,
2013-09-20 23:55:00,73.0,65.0,28.87,South,180,2.0,3.0,76,0.00,,,0.00,,2013-09-21 03:55:00,